This demonstration page uses our WeatherBlox Daily Observations layout. Learn more.

Left ArrowRight Arrow

Hourly Observations for January 16, 2016

Temp ( °F °C ) Dew Point ( °F °C ) Humidity (%) Winds ( mph kmh ) Pressure ( in mb ) Visibility ( mi km ) Precip ( " mm )
12:51 am 00:51 Clear 34 1.1 32 undefined 92 92 S 3 6 30.04 1017 10 16 N/A
1:51 am 01:51 Clear 34 1.1 31 -0.6 89 89 WSW 8 13 30.06 1018 10 16 N/A
2:51 am 02:51 Clear 33 0.6 31 -0.6 92 92 W 5 7 30.08 1019 10 16 N/A
3:51 am 03:51 Clear 31 -0.6 30 -1.1 96 96 ESE 6 9 30.08 1019 9 14 N/A
4:51 am 04:51 Clear 31 -0.6 29 -1.7 92 92 N N/A 30.10 1019 10 16 N/A
5:51 am 05:51 Clear 30 -1.1 28 -2.2 92 92 E 6 9 30.13 1020 10 16 N/A
6:51 am 06:51 Clear 30 -1.1 29 -1.7 96 96 SSE 5 7 30.15 1021 10 16 N/A
7:51 am 07:51 Sunny 30 -1.1 28 -2.2 92 92 ENE 3 6 30.16 1021 8 13 N/A
8:51 am 08:51 Sunny 35 1.7 32 undefined 89 89 E 3 6 30.17 1022 10 16 N/A
9:51 am 09:51 Sunny 39 3.9 32 undefined 76 76 N N/A 30.19 1022 10 16 N/A
10:51 am 10:51 Sunny 43 6.1 34 1.1 71 71 VRB 3 6 30.17 1022 10 16 N/A
11:51 am 11:51 Sunny 47 8.3 32 undefined 56 56 W 5 7 30.15 1021 10 16 N/A
12:51 pm 12:51 Sunny 50 10 30 -1.1 46 46 SW 6 9 30.09 1019 10 16 N/A
1:51 pm 13:51 Sunny 52 11.1 30 -1.1 43 43 VRB 3 6 30.06 1018 10 16 N/A
2:51 pm 14:51 Sunny 55 12.8 29 -1.7 37 37 W 9 15 30.03 1017 10 16 N/A
3:51 pm 15:51 Sunny 55 12.8 25 -3.9 31 31 WNW 9 15 30.04 1017 10 16 N/A
4:51 pm 16:51 Sunny 54 12.2 25 -3.9 33 33 W 10 17 30.05 1018 10 16 N/A
5:51 pm 17:51 Clear 50 10 31 -0.6 48 48 WSW 6 9 30.07 1018 10 16 N/A
6:51 pm 18:51 Clear 47 8.3 33 0.6 59 59 ENE 6 9 30.09 1019 10 16 N/A
7:51 pm 19:51 Clear 47 8.3 32 undefined 56 56 N N/A 30.10 1019 10 16 N/A
8:51 pm 20:51 Partly Cloudy 47 8.3 32 undefined 56 56 SE 5 7 30.08 1019 10 16 N/A
9:51 pm 21:51 Clear 44 6.7 34 1.1 68 68 N 3 6 30.09 1019 10 16 N/A
10:51 pm 22:51 Clear 43 6.1 34 1.1 71 71 NNE 5 7 30.09 1019 10 16 N/A
11:51 pm 23:51 Clear 39 3.9 33 0.6 79 79 N N/A 30.10 1019 10 16 N/A

Powered by AerisWeather